THORAD AGENA D DEB, 14478

Orbit data source: Space-Track

THORAD AGENA D DEB, 14478 is space debris in SSO originally from a launch on Wed, 08 Apr 1970 UTC launched from the Air Force Western Test Range (AFWTR). Debris objects in space refer to the collection of defunct objects orbiting the Earth. Examples of debris include non-operational satellites, rocket bodies, and fragments generated from explosions, collisions, or faulty payload assembly.

Loading next visibility...
Identifier
14478, 1970-025NW
Orbit
SSO
Country
Flag of USUS
Related business
Manufacturer
Unknown
Mission
Spacecraft
Bus & Motor
Unknown
Mass
Unknown
Launch date (UTC)
1970-04-08 (56 years ago)
Launch vehicle
Unknown
Launch site
Air Force Western Test Range (AFWTR)
Object type
Payload
Rocket body
Debris
Shape & HBR
Unknown shape, 0.1 m
Radar Cross Section
Small (<0.1 m²)

Expand to show TLE details & history
Last TLE update: 1 day ago

TLE from 1 day ago
0 THORAD AGENA D DEB
1 14478U 70025NW  25352.49067068  .00004739  00000-0  16602-1 0  9994
2 14478 100.9094 167.4918 0462857  60.1959 304.4321 12.66263893586223
Epoch: 2025-12-18T11:46Z
TLE epoch observation values (Epoch: 2025-12-18T11:46:33.946Z)
Latitude
Longitude
-96.49507°
Altitude
1,208.085 km
Speed
7.339 km/s
True Right ascension
11h 09m 58s
True Declination
0° 00' 00"
Sunlit
Object was in daylight at epoch
Visualization orbit readout
Latitude
Unknown
Longitude
Unknown
Altitude
Unknown
Speed
Unknown
Apparent Right ascension
Unknown
Apparent Declination
Unknown
Sunlit
N/A
Visualization observer readout
Local Sidereal Time
14:17:03
Azimuth
Unknown
Elevation
Unknown
Doppler factor
Unknown
Orbital elements
Apogee altitude
1,754.436 km
Perigee altitude
1,034.896 km
Semi-major axis
7,772.803 km
Eccentricity
0.04629
Inclination
100.9094°
RAAN
167.4918°
Arg. of periapsis
60.1959°
True anomaly
299.91438°
Mean anomaly
304.4321°
Eccentric anomaly
302.18771°
Mean motion
3.16721 °/min
Orbital period
113.66 mins
BSTAR
0.016602
Loading maneuver chart data...
Computing Atmospheric mass density...

Documentation

Showing up to 5 results
|